Latest Weather Observations for Richmond

IDN60801

Issued at 7:05 pm EDT Friday 28 November 2014 (issued every 30 minutes, with the page automatically refreshed every 10 minutes)

About weather observations | Map of weather stations | Latest weather observations for NSW | Other Formats
Station Details ID: 067105 Name: RICHMOND RAAF Lat: -33.60 Lon: 150.78 Height: 19.0 m
Data from the previous 72 hours. | See also: Recent months at Richmond
Date/Time
EDT
Temp
°C
App
Temp
°C
Dew
Point
Rel
Hum
%
Delta-T
°C
Wind Press
QNH
hPa
Press
MSL
hPa
Rain
since 9 am
mm
Dir
 
Spd
km/h
Gust
km/h
Spd
kts
Gust
kts
28/07:00pm 22.0 19.2 12.5 54 5.4 E 19 28 10 15 1019.5 1019.5 0.0
28/06:30pm 22.7 19.2 12.3 52 5.9 E 22 30 12 16 1019.2 1019.2 0.0
28/06:00pm 24.0 20.4 12.9 50 6.4 E 24 33 13 18 1018.9 1018.9 0.0
28/05:30pm 24.6 20.8 12.5 46 7.0 E 24 32 13 17 1018.6 1018.6 0.0
28/05:00pm 24.9 20.8 11.5 43 7.6 E 24 32 13 17 1018.7 1018.7 0.0
28/04:30pm 26.2 23.9 11.9 41 8.2 E 15 28 8 15 1018.8 1018.8 0.0
28/04:00pm 24.7 22.1 10.6 41 7.8 ENE 15 24 8 13 1019.2 1019.2 0.0
28/03:30pm 25.6 23.1 11.0 40 8.2 E 15 22 8 12 1019.6 1019.6 0.0
28/03:00pm 25.6 22.7 11.0 40 8.2 ENE 17 24 9 13 1019.8 1019.8 0.0
28/02:30pm 25.4 23.5 10.4 39 8.3 ESE 11 20 6 11 1020.2 1020.2 0.0
28/02:00pm 24.3 21.3 10.6 42 7.6 ESE 17 26 9 14 1020.6 1020.6 0.0
28/01:30pm 25.1 23.4 9.8 38 8.4 E 9 15 5 8 1021.2 1021.2 0.0
28/01:00pm 24.5 23.5 10.4 41 7.8 NE 6 15 3 8 1021.8 1021.8 0.0
28/12:30pm 24.1 22.6 10.4 42 7.6 NNE 9 15 5 8 1022.3 1022.3 0.0
28/12:00pm 22.4 20.3 9.9 45 6.8 N 11 17 6 9 1022.8 1022.8 0.0
28/11:30am 23.7 22.2 10.7 44 7.2 ENE 9 19 5 10 1023.0 1023.0 0.0
28/11:00am 22.1 21.0 10.6 48 6.3 NW 7 13 4 7 1023.4 1023.4 0.0
28/10:30am 22.1 21.1 10.9 49 6.2 NW 7 13 4 7 1023.3 1023.3 0.0
28/10:00am 21.3 19.8 10.5 50 5.9 NE 9 13 5 7 1023.6 1023.6 0.0
28/09:30am 20.5 19.6 11.2 55 5.1 SSE 7 13 4 7 1023.8 1023.8 0.0
28/09:00am 19.6 18.2 10.9 57 4.7 E 9 15 5 8 1024.0 1024.0 0.0
28/08:30am 19.1 18.8 12.6 66 3.6 S 6 11 3 6 1023.9 1023.9 0.0
28/08:00am 18.0 17.0 13.3 74 2.6 SSW 11 13 6 7 1023.7 1023.7 0.0
28/07:30am 17.4 16.8 13.5 78 2.2 SSW 9 11 5 6 1023.5 1023.5 0.0
28/07:00am 16.8 16.2 13.5 81 1.9 SSW 9 15 5 8 1023.2 1023.2 0.0
28/06:30am 16.4 16.2 13.7 84 1.5 SSW 7 11 4 6 1023.1 1023.1 0.0
28/06:00am 16.0 15.8 13.7 86 1.3 SSW 7 9 4 5 1022.7 1022.7 0.0
28/05:30am 15.9 15.6 13.4 85 1.4 SSW 7 11 4 6 1022.4 1022.4 0.0
28/05:00am 16.1 15.8 13.4 84 1.5 S 7 11 4 6 1022.1 1022.1 0.0
28/04:30am 16.4 15.4 13.5 83 1.6 S 11 13 6 7 1022.1 1022.1 0.0
28/04:00am 16.7 16.1 13.6 82 1.7 S 9 13 5 7 1022.2 1022.2 0.0
28/03:30am 16.9 16.3 13.6 81 1.9 S 9 11 5 6 1022.1 1022.1 0.0
28/03:00am 16.9 16.3 13.6 81 1.9 S 9 13 5 7 1022.2 1022.2 0.0
28/02:30am 17.1 17.0 13.8 81 1.9 SSW 7 9 4 5 1022.6 1022.6 0.0
28/02:00am 17.1 16.6 13.8 81 1.9 SSW 9 11 5 6 1022.7 1022.7 0.0
28/01:30am 17.2 17.0 13.7 80 2.0 SSW 7 9 4 5 1022.9 1022.9 0.0
28/01:00am 17.3 17.1 13.6 79 2.1 SSW 7 9 4 5 1023.2 1023.2 0.0
28/12:30am 17.5 17.3 13.6 78 2.2 SW 7 9 4 5 1023.6 1023.6 0.0
28/12:00am 17.6 17.4 13.7 78 2.2 SSW 7 11 4 6 1023.8 1023.8 0.0
 
Date/Time
EDT
Temp
°C
App
Temp
°C
Dew
Point
Rel
Hum
%
Delta-T
°C
Wind Press
QNH
hPa
Press
MSL
hPa
Rain
since 9 am
mm
Dir
 
Spd
km/h
Gust
km/h
Spd
kts
Gust
kts
27/11:30pm 17.8 17.3 13.7 77 2.3 S 9 13 5 7 1024.0 1024.0 0.0
27/11:00pm 17.9 17.8 14.0 78 2.2 SSW 7 11 4 6 1024.2 1024.2 0.0
27/10:30pm 18.1 18.0 13.8 76 2.5 SSW 7 11 4 6 1024.2 1024.2 0.0
27/10:00pm 18.3 18.1 13.6 74 2.7 S 7 9 4 5 1024.2 1024.2 0.0
27/09:30pm 18.5 18.4 14.0 75 2.6 SSE 7 11 4 6 1024.2 1024.2 0.0
27/09:00pm 18.6 18.1 13.9 74 2.7 SE 9 13 5 7 1023.9 1023.9 0.0
27/08:30pm 18.6 17.8 13.9 74 2.7 ESE 11 13 6 7 1023.5 1023.5 0.0
27/08:00pm 18.8 17.2 13.9 73 2.8 ESE 15 20 8 11 1023.3 1023.3 0.0
27/07:30pm 18.9 16.5 13.7 72 3.0 E 19 24 10 13 1023.0 1023.0 0.0
27/07:00pm 19.2 15.8 13.6 70 3.2 ESE 24 30 13 16 1022.6 1022.6 0.0
27/06:30pm 19.7 17.0 13.6 68 3.5 ESE 20 24 11 13 1022.3 1022.3 0.0
27/06:00pm 19.8 17.1 13.5 67 3.6 ESE 20 28 11 15 1022.0 1022.0 0.0
27/05:30pm 20.1 17.5 13.3 65 3.9 E 19 24 10 13 1021.8 1021.8 0.0
27/05:00pm 20.0 18.3 13.7 67 3.6 E 15 20 8 11 1021.8 1021.8 0.0
27/04:30pm 20.5 18.8 13.5 64 4.0 SE 15 19 8 10 1021.9 1021.9 0.0
27/04:00pm 20.0 18.3 13.7 67 3.6 SE 15 19 8 10 1022.0 1022.0 0.0
27/03:30pm 20.1 18.8 13.8 67 3.6 SSE 13 17 7 9 1022.2 1022.2 0.0
27/03:00pm 20.0 17.9 13.7 67 3.6 SSE 17 24 9 13 1022.2 1022.2 0.0
27/02:30pm 20.4 18.4 13.8 66 3.8 SSE 17 22 9 12 1022.1 1022.1 0.0
27/02:00pm 19.9 18.0 14.3 70 3.2 SSE 17 20 9 11 1022.2 1022.2 0.0
27/01:30pm 19.8 17.6 14.4 71 3.1 SSE 19 26 10 14 1022.2 1022.2 0.0
27/01:00pm 19.9 18.5 14.5 71 3.1 SSE 15 20 8 11 1022.2 1022.2 0.0
27/12:30pm 20.0 17.7 14.6 71 3.2 SE 20 26 11 14 1022.3 1022.3 0.0
27/12:00pm 19.1 17.6 15.2 78 2.3 ESE 17 19 9 10 1022.4 1022.4 0.0
27/11:30am 19.7 18.1 13.9 69 3.3 SSE 15 22 8 12 1022.3 1022.3 0.0
27/11:00am 19.7 18.3 14.5 72 3.0 S 15 19 8 10 1022.3 1022.3 0.0
27/10:30am 18.9 18.8 16.1 84 1.7 S 11 17 6 9 1022.4 1022.4 0.0
27/10:00am 18.2 17.4 16.2 88 1.2 SSW 15 19 8 10 1022.3 1022.3 0.0
27/09:30am 17.6 16.7 15.8 89 1.1 SSW 15 20 8 11 1022.3 1022.3 0.0
27/09:00am 17.7 15.9 15.5 87 1.3 S 19 26 10 14 1022.2 1022.2 0.8
27/08:46am 17.6 15.8 15.4 87 1.3 S 19 28 10 15 1022.1 1022.1 0.8
27/08:30am 17.7 16.3 15.5 87 1.3 S 17 22 9 12 1021.9 1021.9 0.4
27/08:27am 17.7 16.4 15.7 88 1.2 S 17 22 9 12 1021.8 1021.8 0.4
27/08:00am 17.9 15.9 15.5 86 1.4 S 20 28 11 15 1021.5 1021.5 0.4
27/07:30am 17.6 15.1 15.2 86 1.4 S 22 32 12 17 1021.1 1021.1 0.4
27/07:22am 17.6 15.6 15.6 88 1.2 S 20 26 11 14 1020.9 1020.9 0.4
27/07:00am 17.7 14.6 15.5 87 1.3 S 26 39 14 21 1020.6 1020.6 0.2
27/06:30am 18.6 16.7 15.3 81 1.9 S 19 33 10 18 1020.0 1020.0 0.0
27/06:27am 18.7 16.7 15.4 81 1.9 S 20 33 11 18 1020.0 1020.0 0.0
27/06:00am 18.8 17.5 15.9 83 1.7 S 17 24 9 13 1019.7 1019.7 0.0
27/05:30am 18.6 18.4 16.6 88 1.2 S 13 17 7 9 1019.2 1019.2 0.0
27/05:00am 17.9 18.3 16.4 91 0.9 SSW 9 13 5 7 1018.8 1018.8 0.0
27/04:30am 17.8 18.2 16.3 91 0.9 SSW 9 13 5 7 1018.4 1018.4 0.0
27/04:00am 18.0 18.4 16.2 89 1.1 SSW 9 13 5 7 1018.1 1018.1 0.0
27/03:30am 18.2 18.6 16.2 88 1.2 SSW 9 13 5 7 1018.0 1018.0 0.0
27/03:00am 18.7 19.0 16.1 85 1.5 SSW 9 13 5 7 1018.0 1018.0 0.0
27/02:30am 19.8 20.3 16.6 82 1.9 S 9 13 5 7 1018.1 1018.1 0.0
27/02:00am 20.1 21.2 17.1 83 1.8 S 7 9 4 5 1018.3 1018.3 0.0
27/01:30am 19.9 21.0 17.1 84 1.7 S 7 11 4 6 1018.4 1018.4 0.0
27/01:00am 19.7 20.8 17.1 85 1.6 S 7 11 4 6 1018.7 1018.7 0.0
27/12:30am 19.2 19.8 16.8 86 1.4 S 9 11 5 6 1018.9 1018.9 0.0
27/12:00am 19.5 20.1 16.7 84 1.7 SSW 9 11 5 6 1019.0 1019.0 0.0
 
Date/Time
EDT
Temp
°C
App
Temp
°C
Dew
Point
Rel
Hum
%
Delta-T
°C
Wind Press
QNH
hPa
Press
MSL
hPa
Rain
since 9 am
mm
Dir
 
Spd
km/h
Gust
km/h
Spd
kts
Gust
kts
26/11:30pm 19.2 19.6 16.4 84 1.7 SSW 9 11 5 6 1018.9 1018.9 0.0
26/11:00pm 19.5 19.9 16.3 82 1.9 SSW 9 11 5 6 1018.7 1018.7 0.0
26/10:30pm 20.3 21.2 16.5 79 2.3 S 7 9 4 5 1018.6 1018.6 0.0
26/10:00pm 20.9 21.4 16.5 76 2.7 SSE 9 11 5 6 1018.5 1018.5 0.0
26/09:30pm 21.3 21.0 16.5 74 2.9 SE 13 17 7 9 1018.2 1018.2 0.0
26/09:00pm 21.6 21.4 16.6 73 3.0 ESE 13 19 7 10 1017.7 1017.7 0.0
26/08:30pm 21.9 20.5 16.6 72 3.2 E 19 24 10 13 1017.2 1017.2 0.0
26/08:00pm 22.3 20.7 16.6 70 3.5 E 20 28 11 15 1016.7 1016.6 0.0
26/07:30pm 22.8 21.7 16.4 67 3.9 E 17 22 9 12 1016.1 1016.0 0.0
26/07:00pm 23.3 22.5 16.1 64 4.4 E 15 22 8 12 1015.6 1015.5 0.0
26/06:30pm 24.1 22.8 15.9 60 5.0 E 17 24 9 13 1015.1 1015.0 0.0
26/06:00pm 24.9 23.2 15.8 57 5.5 E 19 24 10 13 1014.5 1014.4 0.0
26/05:30pm 25.4 23.8 16.0 56 5.7 E 19 28 10 15 1014.5 1014.4 0.0
26/05:00pm 25.9 24.3 16.5 56 5.8 E 20 26 11 14 1014.5 1014.4 0.0
26/04:30pm 26.0 24.7 16.8 57 5.7 E 19 28 10 15 1014.6 1014.5 0.0
26/04:00pm 25.4 23.3 16.3 57 5.6 ESE 22 35 12 19 1014.6 1014.5 0.0
26/03:30pm 25.1 21.9 15.4 55 5.9 E 26 35 14 19 1015.0 1014.9 0.0
26/03:00pm 25.1 23.2 15.7 56 5.7 E 20 28 11 15 1015.3 1015.2 0.0
26/02:30pm 24.4 22.0 14.5 54 5.9 ENE 20 32 11 17 1015.7 1015.6 0.0
26/02:00pm 24.2 22.6 14.9 56 5.5 NNE 17 20 9 11 1016.3 1016.2 0.0
26/01:30pm 25.2 24.0 16.1 57 5.6 NNE 17 26 9 14 1016.7 1016.6 0.0
26/01:00pm 22.3 22.0 14.4 61 4.6 NNE 9 17 5 9 1017.4 1017.4 0.0
26/12:30pm 21.9 21.9 14.3 62 4.4 N 7 15 4 8 1018.0 1018.0 0.0
26/12:00pm 21.6 21.2 14.0 62 4.4 NNE 9 17 5 9 1018.4 1018.4 0.0
26/11:30am 21.4 21.0 14.1 63 4.2 NNW 9 17 5 9 1018.9 1018.9 0.0
26/11:00am 21.0 20.3 14.4 66 3.8 NNW 11 15 6 8 1019.1 1019.1 0.0
26/10:30am 20.4 20.5 13.8 66 3.8 NNW 6 9 3 5 1019.3 1019.3 0.0
26/10:00am 20.5 21.0 13.9 66 3.8 N 4 11 2 6 1019.4 1019.4 0.0
26/09:30am 20.2 20.6 13.6 66 3.8 NNE 4 11 2 6 1019.6 1019.6 0.0
26/09:00am 20.3 20.1 13.7 66 3.8 NNE 7 11 4 6 1019.6 1019.6 0.2
26/08:30am 20.1 19.2 13.6 66 3.7 NE 11 13 6 7 1019.8 1019.8 0.2
26/08:00am 19.9 19.5 14.0 69 3.4 NNE 9 15 5 8 1019.5 1019.5 0.2
26/07:30am 19.6 18.7 13.8 69 3.3 NNE 11 15 6 8 1019.5 1019.5 0.2
26/07:00am 19.3 19.3 14.3 73 2.9 NNE 7 11 4 6 1019.3 1019.3 0.2
26/06:30am 18.9 18.7 14.8 77 2.4 NNE 9 13 5 7 1019.3 1019.3 0.2
26/06:00am 18.6 20.1 14.7 78 2.3 CALM 0 0 0 0 1019.2 1019.2 0.2
26/05:30am 18.7 20.3 15.0 79 2.2 CALM 0 0 0 0 1019.0 1019.0 0.2
26/05:00am 18.6 19.4 14.9 79 2.2 E 4 6 2 3 1018.8 1018.8 0.2
26/04:30am 18.6 19.0 14.7 78 2.3 ENE 6 9 3 5 1018.9 1018.9 0.2
26/04:00am 18.8 18.9 14.5 76 2.5 E 7 9 4 5 1018.9 1018.9 0.2
26/03:30am 18.8 18.9 14.5 76 2.5 ESE 7 11 4 6 1018.9 1018.9 0.2
26/03:00am 19.0 18.3 14.3 74 2.7 ESE 11 13 6 7 1019.0 1019.0 0.2
26/02:30am 19.0 19.1 14.5 75 2.6 SE 7 9 4 5 1019.3 1019.3 0.2
26/02:00am 19.1 19.2 14.4 74 2.7 SE 7 9 4 5 1019.4 1019.4 0.2
26/01:30am 19.3 19.1 14.6 74 2.7 SE 9 11 5 6 1019.8 1019.8 0.2
26/01:00am 19.5 19.5 14.3 72 3.0 SSE 7 9 4 5 1020.2 1020.2 0.2
26/12:30am 19.5 18.8 14.3 72 3.0 SE 11 13 6 7 1020.5 1020.5 0.2
26/12:00am 19.7 19.4 14.3 71 3.1 ESE 9 13 5 7 1020.5 1020.5 0.2
 
Date/Time
EDT
Temp
°C
App
Temp
°C
Dew
Point
Rel
Hum
%
Delta-T
°C
Wind Press
QNH
hPa
Press
MSL
hPa
Rain
since 9 am
mm
Dir
 
Spd
km/h
Gust
km/h
Spd
kts
Gust
kts
25/11:30pm 19.9 19.2 14.3 70 3.2 SE 11 13 6 7 1020.4 1020.4 0.2
25/11:00pm 19.8 18.7 14.2 70 3.2 ESE 13 17 7 9 1020.4 1020.4 0.2
25/10:30pm 19.8 19.0 14.0 69 3.3 E 11 15 6 8 1020.5 1020.5 0.2
25/10:00pm 19.9 18.6 13.8 68 3.5 E 13 19 7 10 1020.2 1020.2 0.2
25/09:30pm 20.0 18.4 13.9 68 3.5 ESE 15 20 8 11 1019.8 1019.8 0.2
25/09:00pm 20.2 17.8 13.9 67 3.6 E 19 22 10 12 1019.6 1019.6 0.2
25/08:30pm 20.2 19.0 13.9 67 3.6 E 13 17 7 9 1019.2 1019.2 0.2
25/08:00pm 19.9 17.9 13.8 68 3.5 E 17 24 9 13 1018.6 1018.6 0.2
25/07:30pm 20.5 18.1 13.9 66 3.8 E 19 24 10 13 1018.0 1018.0 0.2

Other Formats:

Comma delimited format used in spreadsheet applications
http://www.bom.gov.au/fwo/IDN60801/IDN60801.95753.axf

JavaScript Object Notation format (JSON) in row-major order
http://www.bom.gov.au/fwo/IDN60801/IDN60801.95753.json